• în România
  • Lista ţărilor
  • Pe 7 zile
  • Temperatura apei
  • Hartă satelitară
  • Meteo pe hartă
  • Widget-uri
  • user-avatar
    Intrare

    Meteo pe oră la Apanasenko

    Astăzi, 26 Septembrie, Miercuri

    Timp Temperatura Precipitaţii Vânt Presiune Umiditate
    00:00 +16°C° 0.2 mm 5 m/s 737 mmHg 79%
    01:00 +16°C° 0.1 mm 5 m/s 737 mmHg 79%
    02:00 +15°C° 0.1 mm 4 m/s 737 mmHg 78%
    03:00 +14°C° 0.1 mm 4 m/s 738 mmHg 78%
    04:00 +14°C° 0.1 mm 4 m/s 738 mmHg 78%
    05:00 +14°C° 0.1 mm 4 m/s 738 mmHg 78%
    06:00 +13°C° 0.1 mm 4 m/s 739 mmHg 78%
    07:00 +13°C° 0.3 mm 4 m/s 739 mmHg 79%
    08:00 +12°C° 0.3 mm 4 m/s 739 mmHg 79%
    09:00 +12°C° 0.3 mm 3 m/s 740 mmHg 80%
    10:00 +12°C° 0.3 mm 3 m/s 740 mmHg 80%
    11:00 +12°C° 0.3 mm 3 m/s 741 mmHg 80%
    12:00 +12°C° 0.3 mm 3 m/s 741 mmHg 79%
    13:00 +13°C° 0.2 mm 2 m/s 741 mmHg 78%
    14:00 +13°C° 0.2 mm 2 m/s 741 mmHg 77%
    15:00 +13°C° 0.2 mm 2 m/s 741 mmHg 76%
    16:00 +13°C° 0.1 mm 2 m/s 741 mmHg 76%
    17:00 +13°C° 0.1 mm 2 m/s 741 mmHg 77%
    18:00 +13°C° 0.1 mm 2 m/s 741 mmHg 77%
    19:00 +13°C° 0.1 mm 2 m/s 742 mmHg 77%
    20:00 +13°C° 0.1 mm 2 m/s 742 mmHg 77%
    21:00 +13°C° 0.1 mm 2 m/s 742 mmHg 77%
    22:00 +13°C° 0 mm 1 m/s 742 mmHg 77%
    23:00 +13°C° 0 mm 1 m/s 742 mmHg 76%

    Mâine, 27 Septembrie, Joi

    Timp Temperatura Precipitaţii Vânt Presiune Umiditate
    00:00 +13°C° 0 mm 1 m/s 743 mmHg 76%
    01:00 +13°C° 0 mm 1 m/s 743 mmHg 76%
    02:00 +13°C° 0 mm 1 m/s 743 mmHg 76%
    03:00 +12°C° 0 mm 1 m/s 743 mmHg 77%
    04:00 +12°C° 0 mm 1 m/s 743 mmHg 77%
    05:00 +11°C° 0 mm 0 m/s 743 mmHg 77%
    06:00 +11°C° 0 mm 0 m/s 743 mmHg 78%
    07:00 +13°C° 0 mm 1 m/s 743 mmHg 73%
    08:00 +14°C° 0 mm 1 m/s 743 mmHg 68%
    09:00 +15°C° 0 mm 2 m/s 743 mmHg 63%
    10:00 +16°C° 0 mm 2 m/s 743 mmHg 59%
    11:00 +17°C° 0 mm 2 m/s 742 mmHg 54%
    12:00 +18°C° 0 mm 3 m/s 742 mmHg 49%
    13:00 +19°C° 0 mm 3 m/s 742 mmHg 48%
    14:00 +19°C° 0 mm 3 m/s 741 mmHg 47%
    15:00 +20°C° 0 mm 2 m/s 741 mmHg 45%
    16:00 +19°C° 0 mm 2 m/s 741 mmHg 49%
    17:00 +18°C° 0 mm 2 m/s 741 mmHg 53%
    18:00 +16°C° 0 mm 2 m/s 741 mmHg 57%
    19:00 +16°C° 0 mm 1 m/s 741 mmHg 59%
    20:00 +15°C° 0 mm 1 m/s 741 mmHg 62%
    21:00 +15°C° 0 mm 1 m/s 741 mmHg 64%
    22:00 +14°C° 0 mm 1 m/s 741 mmHg 66%
    23:00 +14°C° 0 mm 1 m/s 741 mmHg 67%

    Poimâine, 28 Septembrie, Vineri

    Timp Temperatura Precipitaţii Vânt Presiune Umiditate
    00:00 +14°C° 0 mm 1 m/s 742 mmHg 69%
    01:00 +13°C° 0 mm 1 m/s 741 mmHg 69%
    02:00 +13°C° 0 mm 1 m/s 741 mmHg 70%
    03:00 +13°C° 0 mm 1 m/s 741 mmHg 71%
    04:00 +13°C° 0 mm 1 m/s 741 mmHg 72%
    05:00 +12°C° 0 mm 1 m/s 741 mmHg 72%
    06:00 +11°C° 0 mm 0 m/s 741 mmHg 73%
    07:00 +13°C° 0 mm 1 m/s 741 mmHg 67%
    08:00 +15°C° 0 mm 1 m/s 741 mmHg 61%
    09:00 +18°C° 0 mm 1 m/s 741 mmHg 56%
    10:00 +18°C° 0 mm 2 m/s 741 mmHg 52%
    11:00 +20°C° 0 mm 3 m/s 740 mmHg 49%
    12:00 +21°C° 0 mm 3 m/s 740 mmHg 46%
    13:00 +22°C° 0 mm 3 m/s 739 mmHg 45%
    14:00 +22°C° 0 mm 3 m/s 739 mmHg 44%
    15:00 +24°C° 0 mm 3 m/s 739 mmHg 43%
    16:00 +21°C° 0 mm 3 m/s 738 mmHg 47%
    17:00 +20°C° 0 mm 3 m/s 738 mmHg 52%
    18:00 +19°C° 0 mm 3 m/s 738 mmHg 56%
    19:00 +18°C° 0 mm 2 m/s 738 mmHg 60%
    20:00 +17°C° 0 mm 2 m/s 738 mmHg 63%
    21:00 +17°C° 0 mm 2 m/s 737 mmHg 66%
    22:00 +16°C° 0 mm 2 m/s 737 mmHg 69%
    23:00 +16°C° 0 mm 2 m/s 737 mmHg 72%

    29 Septembrie, Sâmbătă

    Timp Temperatura Precipitaţii Vânt Presiune Umiditate
    00:00 +15°C° 0 mm 2 m/s 737 mmHg 76%
    01:00 +15°C° 0 mm 2 m/s 737 mmHg 79%
    02:00 +15°C° 0 mm 1 m/s 737 mmHg 82%
    03:00 +15°C° 0 mm 1 m/s 737 mmHg 85%
    04:00 +14°C° 0 mm 1 m/s 736 mmHg 87%
    05:00 +14°C° 0 mm 1 m/s 736 mmHg 88%
    06:00 +14°C° 0 mm 1 m/s 736 mmHg 90%
    07:00 +15°C° 0 mm 1 m/s 736 mmHg 84%
    08:00 +18°C° 0 mm 1 m/s 736 mmHg 78%
    09:00 +19°C° 0 mm 2 m/s 736 mmHg 72%
    10:00 +20°C° 0 mm 2 m/s 736 mmHg 66%
    11:00 +22°C° 0 mm 3 m/s 736 mmHg 60%
    12:00 +24°C° 0 mm 3 m/s 736 mmHg 54%
    13:00 +25°C° 0 mm 3 m/s 736 mmHg 53%
    14:00 +25°C° 0 mm 3 m/s 735 mmHg 51%
    15:00 +26°C° 0 mm 3 m/s 735 mmHg 50%
    16:00 +24°C° 0 mm 3 m/s 735 mmHg 54%
    17:00 +23°C° 0 mm 2 m/s 735 mmHg 59%
    18:00 +21°C° 0 mm 2 m/s 735 mmHg 64%
    19:00 +20°C° 0 mm 2 m/s 735 mmHg 67%
    20:00 +20°C° 0 mm 2 m/s 735 mmHg 69%
    21:00 +19°C° 0 mm 2 m/s 736 mmHg 72%
    22:00 +19°C° 0 mm 2 m/s 735 mmHg 72%
    23:00 +19°C° 0 mm 2 m/s 735 mmHg 73%

    30 Septembrie, Duminică

    Timp Temperatura Precipitaţii Vânt Presiune Umiditate
    00:00 +19°C° 0 mm 2 m/s 735 mmHg 73%
    01:00 +19°C° 0 mm 1 m/s 735 mmHg 74%
    02:00 +19°C° 0 mm 1 m/s 735 mmHg 74%
    03:00 +19°C° 0 mm 1 m/s 735 mmHg 75%
    04:00 +18°C° 0 mm 1 m/s 735 mmHg 76%
    05:00 +18°C° 0 mm 1 m/s 736 mmHg 76%
    06:00 +18°C° 0 mm 1 m/s 736 mmHg 76%
    07:00 +19°C° 0 mm 1 m/s 736 mmHg 71%
    08:00 +21°C° 0 mm 1 m/s 736 mmHg 65%
    09:00 +21°C° 0 mm 2 m/s 736 mmHg 60%
    10:00 +24°C° 0 mm 2 m/s 736 mmHg 55%
    11:00 +25°C° 0 mm 3 m/s 736 mmHg 49%
    12:00 +26°C° 0 mm 3 m/s 736 mmHg 44%
    13:00 +27°C° 0 mm 3 m/s 736 mmHg 43%
    14:00 +27°C° 0 mm 3 m/s 736 mmHg 42%
    15:00 +28°C° 0 mm 3 m/s 736 mmHg 40%
    16:00 +26°C° 0 mm 3 m/s 736 mmHg 43%
    17:00 +25°C° 0 mm 3 m/s 736 mmHg 47%
    18:00 +22°C° 0 mm 3 m/s 736 mmHg 50%
    19:00 +21°C° 0 mm 3 m/s 737 mmHg 52%
    20:00 +21°C° 0 mm 3 m/s 737 mmHg 53%
    21:00 +20°C° 0 mm 3 m/s 737 mmHg 55%
    22:00 +19°C° 0 mm 2 m/s 737 mmHg 56%
    23:00 +19°C° 0 mm 2 m/s 737 mmHg 57%

    1 Octombrie, Luni

    Timp Temperatura Precipitaţii Vânt Presiune Umiditate
    00:00 +18°C° 0 mm 2 m/s 736 mmHg 58%
    01:00 +18°C° 0 mm 2 m/s 736 mmHg 59%
    02:00 +17°C° 0 mm 2 m/s 736 mmHg 59%
    03:00 +17°C° 0 mm 2 m/s 736 mmHg 59%
    04:00 +17°C° 0 mm 2 m/s 736 mmHg 60%
    05:00 +16°C° 0 mm 2 m/s 736 mmHg 60%
    06:00 +16°C° 0 mm 2 m/s 736 mmHg 60%
    07:00 +18°C° 0 mm 3 m/s 736 mmHg 55%
    08:00 +19°C° 0 mm 4 m/s 736 mmHg 50%
    09:00 +21°C° 0 mm 5 m/s 737 mmHg 45%
    10:00 +22°C° 0 mm 5 m/s 736 mmHg 42%
    11:00 +24°C° 0 mm 6 m/s 736 mmHg 40%
    12:00 +26°C° 0 mm 6 m/s 736 mmHg 37%
    13:00 +26°C° 0 mm 6 m/s 736 mmHg 37%
    14:00 +26°C° 0 mm 6 m/s 736 mmHg 36%
    15:00 +26°C° 0 mm 7 m/s 736 mmHg 36%
    16:00 +24°C° 0 mm 6 m/s 736 mmHg 39%
    17:00 +23°C° 0 mm 6 m/s 736 mmHg 42%
    18:00 +22°C° 0 mm 5 m/s 736 mmHg 45%
    19:00 +21°C° 0 mm 5 m/s 736 mmHg 48%
    20:00 +20°C° 0 mm 6 m/s 736 mmHg 52%
    21:00 +19°C° 0 mm 6 m/s 736 mmHg 55%
    22:00 +17°C° 0 mm 6 m/s 736 mmHg 60%
    23:00 +17°C° 0 mm 6 m/s 736 mmHg 64%
    Arată mai mult